Regional Weather Roundup
Issued by NWS

Home | Current Version | Previous Version | Graphics & Text | Print | Product List | Glossary On
Versions: 1 2 3 4 5 6 7 8 9 10 11 12 13 14 15 16 17 18 19 20 21 22 23 24 25 26 27 28 29 30 31 32 33 34 35 36 37 38 39 40 41 42 43 44 45 46 47 48 49 50
000
ASUS43 KFSD 060102
RWRSD

WEATHER ROUNDUP FOR SOUTH DAKOTA
NATIONAL WEATHER SERVICE SIOUX FALLS SD
800 PM CDT TUE MAY 05 2015

NOTE: "FAIR" INDICATES FEW OR NO CLOUDS BELOW 12,000 FEET WITH NO
SIGNIFICANT WEATHER AND/OR OBSTRUCTIONS TO VISIBILITY.


SDZ001>005-009-010-012>017-060200-
NORTHWEST AND NORTH CENTRAL SOUTH DAKOTA

CITY           SKY/WX    TMP DP  RH WIND       PRES   REMARKS
BUFFALO          N/A     65  49  56 SE23G33   29.72F
FAITH            N/A     65  51  60 SE20G26   29.82F
MOBRIDGE       MOCLDY    69  52  54 S20       29.85S
$$

SDZ012>016-024>037-041>051-057-063-072>074-060200-
SOUTHWEST AND SOUTH CENTRAL SOUTH DAKOTA

CITY           SKY/WX    TMP DP  RH WIND       PRES   REMARKS
RAPID CTY ARPT CLOUDY    62  51  67 S21       29.83F
PIERRE         CLOUDY    61  54  77 SE13      29.88F
CUSTER         CLOUDY    51  47  86 SE9       29.88F
PHILIP         CLOUDY    64  54  69 SE18      29.85S
PINE RIDGE     CLOUDY    59  51  75 SE12G21   29.86F
WINNER         FAIR      62  57  83 SE14      29.90F HAZE
$$

SDZ004>011-016>023-039-040-060200-
NORTHEAST SOUTH DAKOTA

CITY           SKY/WX    TMP DP  RH WIND       PRES   REMARKS
ABERDEEN       CLOUDY    70  54  56 S17       29.93R
WATERTOWN      LGT RAIN  63  56  78 SE17      29.99S
BROOKINGS      CLOUDY    64  57  77 SE12      30.00F
SISSETON         N/A     66  55  67 S23G29    29.96S
$$

SDZ017-020-022-023-036>040-048>070-060200-
SOUTHEAST SOUTH DAKOTA

CITY           SKY/WX    TMP DP  RH WIND       PRES   REMARKS
SIOUX FALLS    CLOUDY    66  58  75 E20       29.98S
HURON          CLOUDY    64  59  83 SE8       29.94S
MITCHELL       CLOUDY    66  59  78 E6        29.94F
YANKTON        CLOUDY    72  57  60 SE14      29.93S
$$

ABBREVIATIONS USED IN REMARKS
   TC - TEMPERATURE IN CELSIUS
  WCI - WIND CHILL INDEX
   HX - HEAT INDEX
  VSB - VISIBILITY



USA.gov is the U.S. government's official web portal to all federal, state and local government web resources and services.